Location: La Oliva
(42.2466°N, 2.9955°E)
Time: 10:31:45
(UTC+00:00)

Cosmos 2279 Rocket - Pass Details

Date: 22 April 2021
Orbit: 964 x 978 km, 82.9° (Epoch: 10 May)

Event Time Altitude Azimuth Distance (km) Brightness Sun altitude
Rises 19:23:08 0° 169° (S) 3,637 6.6 -8.7°
Reaches altitude 10° 19:25:42 10° 164° (SSE) 2,694 5.9 -9.1°
Maximum altitude 19:31:36 50° 91° (E) 1,218 4.2 -10.1°
Drops below altitude 10° 19:37:32 10° 18° (NNE) 2,713 6.5 -11.0°
Sets 19:40:07 0° 13° (NNE) 3,665 7.2 -11.5°
